Location: Il Ritiro
(43.4167°N, 13.1333°E)
Time: 01:13:28
(UTC+00:00)

Cosmos 1048 Rocket - Pass Details

Date: 05 July 2020
Orbit: 744 x 791 km, 74.0° (Epoch: 11 August)

Event Time Altitude Azimuth Distance (km) Brightness Sun altitude
Exits shadow 23:19:34 63° 155° (SSE) 869 3.9 -23.9°
Maximum altitude 23:20:14 71° 107° (ESE) 823 4.0 -23.9°
Drops below altitude 10° 23:25:29 10° 25° (NNE) 2,321 7.4 -23.9°
Sets 23:27:52 0° 23° (NNE) 3,244 8.4 -23.8°
